User: anonymous   Login
Location: Unspecified
(0.0000°N, 0.0000°E)
Time: 02:06:32
(UTC+00:00)
Language:

STARLINK-34517 - Orbit

View from above orbital plane
View from above orbital plane
View from above satellite
View from above satellite

Ground track
Ground track

The orbit is defined by the following mean orbital elements,

1 64595U          26145.24837315 +.00000000 +00000-0 +41218-3 0 00002
2 64595  53.1603 339.8222 0001837  77.0287 283.0919 15.30206242    05
Epoch (UTC): 25 May 2026 05:57:39
Eccentricity: 0.0001837
inclination: 53.1603°
perigee height: 474 km
apogee height: 476 km
right ascension of ascending node: 339.8222°
argument of perigee: 77.0287°
revolutions per day: 15.30206242
mean anomaly at epoch: 283.0919°

The dashed part of the orbit path shows where the satellite is in the earth's shadow,  

DLR